Flag for South Africa Weather past 2 weeks in Port Elizabeth, South Africa

Now
70 °F

Passing clouds.


Feels Like: 70 °F
Forecast: 56 / 67 °F
Wind: 12 mph from South

Location: Port Elizabeth Airport

Current Time: Apr 18, 2015 at 1:48:41 PM

Latest Report: Apr 18, 2015 at 1:00 PM


Visibility: N/A

Pressure: 30.30 "Hg

Humidity: 64%

Dew point: 57 °F

Location of Port ElizabethLocation

Historic Weather in Port Elizabeth — Graph

°F

Port Elizabeth temperature yesterday

Maximum temperature yesterday: 64 °F (at 10:00 AM)
Minimum temperature yesterday: 52 °F (at 4:00 AM)
Average temperature yesterday: 59 °F

Past Weeks' High & Low Weather Summary

 TemperatureHumidityPressure
High81 °F (Apr 13, 1:00 PM)94% (Apr 5, 2:00 AM)30.42 "Hg (Apr 5, 2:00 AM)
Low50 °F (Apr 6, 6:00 AM)47% (Apr 12, 2:00 PM)29.86 "Hg (Apr 4, 12:00 PM)
Average63 °F77%30.11 "Hg
* Reported Apr 3 7:00 PM — Apr 18 12:00 Noon, Port Elizabeth, Weather by CustomWeather, © 2015

Note: Actual official high and low records may vary slightly from our data, if they occured in-between our weather recording intervals... More about our weather records

Advertising

Port Elizabeth weather history for previous 24 hours

 ConditionsComfort  
Time TempWeatherWind HumidityBarometerVisibility
12:00 PM
Sat, Apr 18
68 °FPassing clouds.8 mph69%30.33 "HgN/A
11:00 AM68 °FPassing clouds.8 mph69%30.33 "HgN/A
10:00 AM66 °FScattered clouds.5 mph73%30.36 "HgN/A
9:00 AM64 °FPassing clouds.2 mph78%30.36 "HgN/A
8:00 AM59 °FPassing clouds.3 mph94%30.33 "HgN/A
7:00 AM61 °FPassing clouds.3 mph83%30.33 "HgN/A
6:00 AM59 °FSunny.3 mph82%30.33 "Hg10 mi
5:00 AM59 °FClear.6 mph82%30.33 "Hg10 mi
4:00 AM59 °FClear.7 mph82%30.33 "Hg10 mi
3:00 AM59 °FClear.6 mph82%30.36 "Hg10 mi
2:00 AM59 °FPassing clouds.6 mph82%30.36 "HgN/A
12:00 AM61 °FPassing clouds.5 mph83%30.39 "HgN/A
10:00 PM
Fri, Apr 17
61 °FPartly cloudy.2 mph88%30.42 "Hg4 mi
9:00 PM61 °FSprinkles. Partly cloudy.6 mph88%30.42 "HgN/A
8:00 PM59 °FPassing clouds.2 mph94%30.42 "HgN/A
5:00 PM59 °FPassing clouds.5 mph94%30.39 "HgN/A
4:00 PM61 °FBroken clouds.7 mph88%30.39 "HgN/A
3:01 PM61 °FSprinkles. Broken clouds.8 mph88%30.39 "HgN/A
2:00 PM61 °FBroken clouds.9 mph88%30.39 "HgN/A
1:00 PM61 °FBroken clouds.12 mph83%30.39 "HgN/A
Weather by CustomWeather, © 2015

See weather overviewHow to use our weather pages